SL-14 DEB, 45328

Orbit data source: Space-Track

SL-14 DEB, 45328 is space debris in LEO originally from a launch on Thu, 15 Aug 1991 UTC launched from the Plesetsk Missile And Space Complex (PKMTR). Debris objects in space refer to the collection of defunct objects orbiting the Earth. Examples of debris include non-operational satellites, rocket bodies, and fragments generated from explosions, collisions, or faulty payload assembly.

Loading next visibility...
Identifier
45328, 1991-056BS
Orbit
LEO
Country
Flag of CISCIS
Related business
Manufacturer
Unknown
Mission
Spacecraft
Bus & Motor
Unknown
Mass
Unknown
Launch date (UTC)
1991-08-15 (34 years ago)
Launch vehicle
Unknown
Launch site
Plesetsk Missile And Space Complex (PKMTR)
Object type
Payload
Rocket body
Debris
Shape & HBR
Unknown shape, 0.1 m
Radar Cross Section
Small (<0.1 m²)

Expand to show TLE details & history
Last TLE update: 11 hours ago

TLE from 11 hours ago
0 SL-14 DEB
1 45328U 91056BS  25286.87624634  .00002273  00000-0  36377-2 0  9998
2 45328  82.5468 245.7488 0116808  79.0698 282.3557 13.45873808275629
Epoch: 2025-10-13T21:01Z
TLE epoch observation values (Epoch: 2025-10-13T21:01:47.683Z)
Latitude
-0.00005°
Longitude
-92.37262°
Altitude
1,072.639 km
Speed
7.324 km/s
True Right ascension
16h 22m 59s
True Declination
0° 00' 00"
Sunlit
Object was in daylight at epoch
Visualization orbit readout
Latitude
Unknown
Longitude
Unknown
Altitude
Unknown
Speed
Unknown
Apparent Right ascension
Unknown
Apparent Declination
Unknown
Sunlit
N/A
Visualization observer readout
Local Sidereal Time
02:52:13
Azimuth
Unknown
Elevation
Unknown
Doppler factor
Unknown
Orbital elements
Apogee altitude
1,171.854 km
Perigee altitude
997.511 km
Semi-major axis
7,462.819 km
Eccentricity
0.01168
Inclination
82.5468°
RAAN
245.7488°
Arg. of periapsis
79.0698°
True anomaly
281.0442°
Mean anomaly
282.3557°
Eccentric anomaly
281.70035°
Mean motion
3.36658 °/min
Orbital period
106.93 mins
BSTAR
0.0036377
Loading maneuver chart data...
Computing Atmospheric mass density...
Loading historical data...
Loading historical data...
Loading historical data...
Loading historical data...
Loading historical data...
Loading historical data...
Loading historical data...

Documentation

Showing up to 5 results
|